Kodiak, AK

1:28 AM AKST on November 22, 2017 (GMT -0900)
Kodiak

Weather History for PADQ - March, 2013

Change the Weather History Date:

Tuesday, March 12, 2013

  Actual Average Record
Temperature  
Mean Temperature 33 °F 32 °F  
Max Temperature 37 °F 38 °F 49 °F (1991)
Min Temperature 29 °F 27 °F 3 °F (1966)
Degree Days  
Heating Degree Days 32 33  
Month to date heating degree days 363 396  
Since 1 July heating degree days 6284 6268  
Cooling Degree Days 0 0  
Month to date cooling degree days 0 0  
Year to date cooling degree days 0 0  
Moisture  
Dew Point 17 °F    
Average Humidity 0    
Maximum Humidity 0    
Minimum Humidity 0    
Precipitation  
Precipitation T in 0.18 in 1.18 in (1944)
Month to date precipitation 3.09 2.16  
Year to date precipitation 19.27 16.59  
Snow  
Snow T in 0.40 in 3.50 in (1952)
Month to date snowfall 4.0 4.6  
Since 1 July snowfall 52.4 54.0  
Snow Depth T in    
Sea Level Pressure  
Sea Level Pressure 30.07 in    
Wind  
Wind Speed 13 mph (NW)    
Max Wind Speed 20 mph    
Max Gust Speed 26 mph    
Visibility 10 miles    
Events      
T = Trace of Precipitation, MM = Missing Value Source: NWS Daily Summary

Daily Weather History Graph

Daily Weather History Graph

Search for Another Location

Airport or City:

Trip Planner

Search our weather history database for the weather conditions in past years. The results will help you decide how hot, cold, wet, or windy it might be!

Date:

Astronomy

Mar. 12, 2013 Rise Set
Actual Time 8:32 AM AKDT 8:07 PM AKDT
Civil Twilight 7:54 AM AKDT 8:46 PM AKDT
Nautical Twilight 7:08 AM AKDT 9:31 PM AKDT
Astronomical Twilight 6:21 AM AKDT 10:19 PM AKDT
Moon 8:24 AM AKDT (3/12) 10:01 PM AKDT (3/12)
Length of Visible Light 12h 52m
Length of Day
11h 34m
New Moon, 1% of the Moon is Illuminated
Mar 12
New Moon
Mar 19
First Quarter
Mar 27
Full
Apr 2
Last Quarter
Apr 10
New

Hourly Weather History & Observations

Time (AKDT) Temp. Windchill Dew Point Humidity Pressure Visibility Wind Dir Wind Speed Gust Speed Precip Events Conditions
12:53 AM 33.1 °F 25.5 °F 19.9 °F 59% 30.20 in 10.0 mi NW 9.2 mph 19.6 mph N/A   Clear
1:53 AM 32.0 °F 22.5 °F 19.0 °F 59% 30.19 in 10.0 mi WNW 12.7 mph - N/A   Clear
2:53 AM 32.0 °F 24.8 °F 18.0 °F 56% 30.18 in 10.0 mi NW 8.1 mph - N/A   Clear
3:53 AM 33.1 °F 23.4 °F 16.0 °F 50% 30.17 in 10.0 mi NW 13.8 mph 23.0 mph N/A   Clear
4:53 AM 32.0 °F 20.8 °F 14.0 °F 48% 30.14 in 10.0 mi WNW 17.3 mph 24.2 mph N/A   Clear
5:53 AM 33.1 °F 23.0 °F 16.0 °F 50% 30.13 in 10.0 mi NW 15.0 mph 20.7 mph N/A   Clear
6:53 AM 32.0 °F 22.5 °F 16.0 °F 52% 30.13 in 10.0 mi NW 12.7 mph 21.9 mph N/A   Clear
7:53 AM 30.9 °F 19.4 °F 18.0 °F 59% 30.11 in 10.0 mi WNW 17.3 mph 23.0 mph N/A   Partly Cloudy
9:53 AM 32.0 °F 22.5 °F 18.0 °F 56% 30.11 in 10.0 mi NW 12.7 mph 19.6 mph N/A   Scattered Clouds
10:53 AM 33.1 °F 22.2 °F 19.0 °F 56% 30.09 in 10.0 mi NW 17.3 mph 24.2 mph N/A   Scattered Clouds
11:53 AM 35.1 °F 24.8 °F 17.1 °F 48% 30.09 in 10.0 mi WNW 17.3 mph 25.3 mph N/A   Scattered Clouds
12:53 PM 35.1 °F 25.9 °F 17.1 °F 48% 30.08 in 10.0 mi NW 13.8 mph 24.2 mph N/A   Clear
1:53 PM 36.0 °F 27.1 °F 12.0 °F 37% 30.06 in 10.0 mi NW 13.8 mph 25.3 mph N/A   Clear
2:53 PM 36.0 °F 26.0 °F 10.9 °F 36% 30.05 in 10.0 mi North 17.3 mph 26.5 mph N/A   Clear
3:53 PM 37.0 °F 29.8 °F 12.9 °F 37% 30.02 in 10.0 mi NW 10.4 mph 19.6 mph N/A   Clear
4:53 PM 36.0 °F 27.1 °F 14.0 °F 41% 30.00 in 10.0 mi NW 13.8 mph 21.9 mph N/A   Scattered Clouds
5:53 PM 34.0 °F 24.6 °F 17.1 °F 50% 29.99 in 10.0 mi WNW 13.8 mph 23.0 mph N/A   Mostly Cloudy
6:53 PM 32.0 °F 23.0 °F 19.0 °F 59% 29.99 in 10.0 mi West 11.5 mph - 0.00 in   Mostly Cloudy
7:53 PM 30.9 °F 23.5 °F 19.0 °F 61% 29.97 in 10.0 mi WNW 8.1 mph - N/A   Mostly Cloudy
8:53 PM 30.9 °F 21.7 °F 19.9 °F 64% 29.97 in 10.0 mi WNW 11.5 mph - N/A   Scattered Clouds
9:53 PM 30.9 °F 24.3 °F 21.9 °F 69% 29.97 in 10.0 mi WNW 6.9 mph - N/A   Mostly Cloudy
10:53 PM 30.9 °F 20.2 °F 19.9 °F 64% 29.97 in 10.0 mi West 15.0 mph - N/A   Overcast
11:53 PM 30.9 °F 21.2 °F 18.0 °F 59% 29.95 in 10.0 mi WNW 12.7 mph - N/A   Mostly Cloudy